GW5559 Weather Reports


time (UTC)temp
F
wind
direction
speed
knots
gust
knots
rain 1hr
in
rain 24hr
in
rain mn
in
humidity
%
barometer
mb
20260505194517 77 201 12.2 21.7 0.00 0.00 0.00 45 1005.8
20260505193535 77 221 11.3 22.6 0.00 0.00 0.00 41 1005.7
20260505192517 79 209 12.2 19.1 0.00 0.00 0.00 41 1005.9
20260505191515 78 218 13.0 26.1 0.00 0.00 0.00 41 1006.2
20260505190517 79 222 19.1 25.2 0.00 0.00 0.00 39 1006.3
20260505185517 79 230 13.0 23.5 0.00 0.00 0.00 40 1006.2
20260505184517 79 222 15.6 27.8 0.00 0.00 0.00 39 1006.4
20260505183517 78 220 12.2 20.9 0.00 0.00 0.00 42 1006.5
20260505182517 78 226 14.8 23.5 0.00 0.00 0.00 41 1006.6
20260505181537 79 236 14.8 22.6 0.00 0.00 0.00 41 1006.8
20260505180517 78 234 16.5 26.1 0.00 0.00 0.00 40 1006.7
20260505175517 78 223 15.6 26.1 0.00 0.00 0.00 41 1006.9
20260505174517 78 227 16.5 28.7 0.00 0.00 0.00 43 1007.0
20260505173537 78 220 18.2 26.9 0.00 0.00 0.00 42 1007.2
20260505172515 78 220 15.6 25.2 0.00 0.00 0.00 43 1007.2
20260505171517 78 208 13.9 27.8 0.00 0.00 0.00 44 1007.2
20260505170537 77 218 15.6 26.9 0.00 0.00 0.00 46 1007.4
20260505165517 77 233 12.2 20.9 0.00 0.00 0.00 50 1007.4
20260505164537 77 228 13.9 20.9 0.00 0.00 0.00 49 1007.6
20260505163517 76 229 13.0 18.2 0.00 0.00 0.00 49 1007.7
20260505162517 76 237 12.2 18.2 0.00 0.00 0.00 51 1007.8
20260505161537 75 226 11.3 17.4 0.00 0.00 0.00 53 1007.9
20260505160517 75 224 11.3 16.5 0.00 0.00 0.00 54 1007.9
20260505152517 72 231 7.8 15.6 0.00 0.00 0.00 57 1008.3
20260505151517 72 225 7.8 14.8 0.00 0.00 0.00 59 1008.4
20260505150517 71 225 7.8 14.8 0.00 0.00 0.00 60 1008.5
20260505140518 67 231 8.7 11.3 0.00 0.00 0.00 65 1008.9
20260505124516 61 223 4.3 7.0 0.00 0.00 0.00 72 1009.4
20260505123537 61 238 3.5 5.2 0.00 0.00 0.00 73 1009.4
20260505122517 60 236 3.5 5.2 0.00 0.00 0.00 73 1009.1
20260505121517 60 241 3.5 5.2 0.00 0.00 0.00 73 1009.2
20260505120537 60 296 1.7 2.6 0.00 0.00 0.00 72 1009.1
20260505115517 60 297 0.9 1.7 0.00 0.00 0.00 73 1009.0
20260505114517 59 296 0.9 2.6 0.00 0.00 0.00 73 1009.1
20260505113517 59 296 1.7 2.6 0.00 0.00 0.00 73 1009.1
20260505112517 58 296 1.7 1.7 0.00 0.00 0.00 72 1009.0
20260505111517 57 297 0.0 1.7 0.00 0.00 0.00 72 1008.8
20260505110517 56 297 0.9 2.6 0.00 0.00 0.00 70 1008.8
20260505101517 52 0.0 0.0 0.00 0.00 0.00 57 1008.3
20260505100517 52 0.0 0.9 0.00 0.00 0.00 57 1008.2
20260505095517 53 0.0 0.0 0.00 0.00 0.00 59 1008.2
20260505094517 54 0.0 0.0 0.00 0.00 0.00 64 1008.2
20260505093537 54 299 0.0 0.9 0.00 0.00 0.00 66 1008.2
20260505092517 54 300 0.0 0.9 0.00 0.00 0.00 66 1008.1
20260505091516 55 0.0 0.0 0.00 0.00 0.00 69 1008.1
20260505090517 55 0.0 0.0 0.00 0.00 0.00 71 1008.1
20260505085536 56 298 0.9 1.7 0.00 0.00 0.00 73 1008.1
20260505084517 56 0.0 0.0 0.00 0.00 0.00 73 1008.1
20260505083517 57 300 0.9 2.6 0.00 0.00 0.00 73 1008.2
20260505082517 57 300 0.0 2.6 0.00 0.00 0.00 74 1008.2
20260505081536 56 300 0.9 2.6 0.00 0.00 0.00 74 1008.4
20260505080517 57 300 0.0 1.7 0.00 0.00 0.00 74 1008.1
20260505075517 57 300 0.9 3.5 0.00 0.00 0.00 74 1008.3
20260505074517 57 299 1.7 5.2 0.00 0.00 0.00 73 1008.3
20260505073536 57 276 1.7 3.5 0.00 0.00 0.00 73 1008.0
20260505072537 58 201 0.9 1.7 0.00 0.00 0.00 71 1007.9
20260505071517 59 204 1.7 6.1 0.00 0.00 0.00 68 1008.1
20260505070517 58 260 3.5 5.2 0.00 0.00 0.00 69 1008.1
20260505065517 58 281 0.9 2.6 0.00 0.00 0.00 70 1008.2
20260505064517 58 281 0.9 1.7 0.00 0.00 0.00 70 1008.2
20260505063517 57 281 0.0 1.7 0.00 0.00 0.00 70 1008.2
20260505062537 57 281 0.9 1.7 0.00 0.00 0.00 71 1008.1
20260505061517 57 281 0.0 1.7 0.00 0.00 0.00 70 1008.1
20260505060517 57 281 1.7 2.6 0.00 0.00 0.00 70 1008.2
20260505055517 57 281 1.7 2.6 0.00 0.00 0.00 68 1008.2
20260505054516 59 281 1.7 1.7 0.00 0.00 0.00 65 1008.2
20260505053516 60 281 1.7 2.6 0.00 0.00 0.00 63 1008.2
20260505052517 60 281 1.7 3.5 0.00 0.00 0.00 62 1008.2
20260505051517 61 281 2.6 3.5 0.00 0.00 0.00 61 1008.2
20260505050516 61 281 1.7 2.6 0.00 0.00 0.00 61 1008.2
20260505041516 59 281 0.0 2.6 0.00 0.00 0.00 62 1007.9
20260505040516 59 281 1.7 2.6 0.00 0.00 0.00 62 1008.0
20260505035515 58 281 2.6 2.6 0.00 0.00 0.00 64 1007.9
20260505034515 57 281 1.7 2.6 0.00 0.00 0.00 66 1007.7
20260505033515 57 281 0.9 1.7 0.00 0.00 0.00 64 1007.8
20260505032515 58 281 0.0 1.7 0.00 0.00 0.00 62 1007.7
20260505031515 58 281 1.7 2.6 0.00 0.00 0.00 63 1007.7
20260505030535 58 281 0.0 0.9 0.00 0.00 0.00 63 1007.8
20260505025515 58 281 0.0 1.7 0.00 0.00 0.00 63 1007.8
20260505024515 58 281 1.7 2.6 0.00 0.00 0.00 62 1007.8
20260505023515 59 281 1.7 1.7 0.00 0.00 0.00 60 1007.9
20260505022515 59 0.0 0.0 0.00 0.00 0.00 60 1007.9
20260505021515 60 281 0.0 1.7 0.00 0.00 0.00 59 1008.0
20260505020515 61 281 0.9 1.7 0.00 0.00 0.00 57 1008.1
20260505015515 60 281 0.0 1.7 0.00 0.00 0.00 60 1008.0
20260505014515 60 281 1.7 1.7 0.00 0.00 0.00 59 1008.0
20260505013515 61 239 1.7 3.5 0.00 0.00 0.00 57 1008.0
20260505012515 62 194 1.7 2.6 0.00 0.00 0.00 55 1007.9
20260505011515 63 195 1.7 3.5 0.00 0.00 0.00 54 1007.7
20260505010515 63 194 1.7 2.6 0.00 0.00 0.00 54 1007.7
20260505005515 63 205 2.6 3.5 0.00 0.00 0.00 55 1007.5
20260505004515 63 206 3.5 5.2 0.00 0.00 0.00 54 1007.4
20260505003515 64 197 3.5 6.1 0.00 0.00 0.00 53 1007.3
20260505002535 64 194 4.3 7.0 0.00 0.00 0.00 52 1007.3
20260505001535 65 186 5.2 9.6 0.00 0.00 0.00 51 1007.2
20260505000515 66 186 5.2 9.6 0.00 0.00 0.00 50 1007.1
20260504235515 66 189 5.2 10.4 0.00 0.00 0.00 49 1007.0
20260504234515 67 176 6.1 10.4 0.00 0.00 0.00 49 1006.9
20260504233535 68 174 4.3 9.6 0.00 0.00 0.00 48 1006.9
20260504232515 68 177 7.8 14.8 0.00 0.00 0.00 46 1006.8
20260504231520 69 175 8.7 13.9 0.00 0.00 0.00 46 1006.7
20260504230515 69 193 6.1 11.3 0.00 0.00 0.00 46 1006.6
20260504225515 70 215 8.7 13.0 0.00 0.00 0.00 44 1006.5
20260504224515 70 214 7.8 14.8 0.00 0.00 0.00 44 1006.4
20260504223515 70 215 8.7 14.8 0.00 0.00 0.00 44 1006.4
20260504222535 70 214 8.7 12.2 0.00 0.00 0.00 44 1006.4
20260504221535 71 219 7.8 12.2 0.00 0.00 0.00 44 1006.5
20260504220535 71 226 7.8 13.0 0.00 0.00 0.00 44 1006.7
20260504215515 71 226 11.3 16.5 0.00 0.00 0.00 43 1006.7
20260504214515 71 223 9.6 16.5 0.00 0.00 0.00 43 1006.7
20260504213515 71 218 11.3 18.2 0.00 0.00 0.00 43 1006.7
20260504212515 70 221 8.7 15.6 0.00 0.00 0.00 44 1006.8
20260504211515 70 220 7.8 18.2 0.00 0.00 0.00 45 1006.7
20260504210515 70 219 9.6 18.2 0.00 0.00 0.00 44 1006.8
20260504205515 71 222 11.3 16.5 0.00 0.00 0.00 44 1007.0
20260504204515 70 217 9.6 15.6 0.00 0.00 0.00 44 1007.0
20260504203515 70 233 11.3 19.1 0.00 0.00 0.00 44 1007.1
20260504202515 70 223 10.4 14.8 0.00 0.00 0.00 44 1007.2
20260504201515 71 214 8.7 12.2 0.00 0.00 0.00 46 1007.4
20260504200515 70 231 10.4 19.1 0.00 0.00 0.00 44 1007.5
20260504195515 70 227 11.3 16.5 0.00 0.00 0.00 46 1007.5